Other Public Products
Issued by NWS Grand Forks, ND

Home | Current Version | Previous Version | Graphics & Text | Print | Product List | Glossary On
Versions: 1 2 3 4 5 6 7 8 9 10 11 12 13 14 15 16 17 18 19 20 21 22 23 24 25 26 27 28 29 30 31 32 33 34 35 36 37 38 39 40 41 42 43 44 45 46 47 48 49 50
000
FPUS83 KFGF 280010
OPUFGF
PRAIRIE TO PINES WEATHER ROUNDUP
NATIONAL WEATHER SERVICE EASTERN NORTH DAKOTA/GRAND FORKS ND
700 PM CDT THU APR 27 2017

 **SATELLITE DATA USED TO AUGMENT SKY COVER AT AUTOMATED STATIONS**
 *****  WEATHER ACROSS EASTERN NORTH DAKOTA  *****

CITY           SKY/WX    TMP DP  RH WIND       PRES   REMARKS
GRAND FORKS    CLOUDY    43  33  68 NE12      29.69R
6HR MIN TEMP:  38; 6HR MAX TEMP:  47;

GRAND FORKS AF CLOUDY    43  31  62 NE15      29.69R
GRAND CITY NWS NOT AVBL
BUXTON         NOT AVBL
DEVILS LAKE    PTSUNNY   46  27  47 N21       29.73R
6HR MIN TEMP:  42; 6HR MAX TEMP:  49;

FARGO          CLOUDY    41  30  65 NE5       29.69R
6HR MIN TEMP:  32; 6HR MAX TEMP:  42;

WAHPETON ARPT  CLOUDY    37  28  70 NW7       29.71R
$$

 *****  WEATHER ACROSS CENTRAL AND WESTERN NORTH DAKOTA  *****

CITY           SKY/WX    TMP DP  RH WIND       PRES   REMARKS
JAMESTOWN      PTSUNNY   48  31  51 N14       29.69R
6HR MIN TEMP:  43; 6HR MAX TEMP:  50;

BISMARCK       FAIR      53  26  35 NE9       29.73R
6HR MIN TEMP:  47; 6HR MAX TEMP:  54;

MINOT          FAIR      52  21  29 N14       29.75R
6HR MIN TEMP:  45; 6HR MAX TEMP:  53;

MINOT AFB      FAIR      50  19  29 N10       29.75R
6HR MIN TEMP:  44; 6HR MAX TEMP:  51;

GARRISON         N/A     50  17  27 NE8       29.74R
6HR MIN TEMP:  44; 6HR MAX TEMP:  51;

WILLISTON      FAIR      53  15  22 E12       29.76R
6HR MIN TEMP:  48; 6HR MAX TEMP:  55;

DICKINSON      FAIR      49  20  31 NE10      29.70R
6HR MIN TEMP:  41; 6HR MAX TEMP:  50;

HETTINGER      FAIR      50  26  39 E10       29.70R
6HR MIN TEMP:  40; 6HR MAX TEMP:  51;

$$

 *****  OTHER OBSERVATIONS NORTHEAST NORTH DAKOTA  *****

CITY           SKY/WX    TMP DP  RH WIND       PRES   REMARKS
WALHALLA       NOT AVBL
LANGDON        CLOUDY    43  27  52 N21G30    29.72S
CAVALIER       MOCLDY    43  28  56 N17G28    29.71R
GRAFTON        CLOUDY    43  32  65 N18       29.71R
CANDO          NOT AVBL
FORT TOTTEN      N/A     47  27  46 N7        29.95S
ROLLA          FAIR      45  27  49 NE15G26   29.76R
RUGBY          NOT AVBL
 ***** THE ABOVE OBSERVATIONS ARE NON NWS ARE NOT QUALITY
        CONTROLLED AND MAY MIS-REPORT RAIN FOR SNOW...
$$

 *****  OTHER OBSERVATIONS SOUTHEAST NORTH DAKOTA *****

CITY           SKY/WX    TMP DP  RH WIND       PRES   REMARKS
COOPERSTOWN    CLOUDY    43  32  65 N18       29.71R
VALLEY CITY    CLOUDY    45  28  53 N16G22    29.71R
OAKES          NOT AVBL
GWINNER        CLOUDY    43  34  70 MISG      29.70R
SHEYENNE NWR     N/A     44  29  56 N9        29.95S
BUFFALO        NOT AVBL
WYNDMERE         N/A     41  34  75 VRB3        N/A
 ***** THE ABOVE OBSERVATIONS ARE NON NWS ARE NOT QUALITY
       CONTROLLED AND MAY MIS-REPORT RAIN FOR SNOW...
$$

  *****  WEATHER ACROSS NORTHERN MINNESOTA  *****

CITY           SKY/WX    TMP DP  RH WIND       PRES   REMARKS
FLAG ISLAND    LGT SNOW  28  25  86 N20       29.64R WCI  15
WARROAD        FLURRIES  30  25  80 N9        29.66R WCI  22
ROSEAU         LGT SNOW  30  27  86 N7        29.66S WCI  23
HALLOCK        CLOUDY    41  30  65 N17G24    29.69R
THF RVR FALLS  CLOUDY    32  25  75 N9        29.69R WCI  24
6HR MIN TEMP:  30; 6HR MAX TEMP:  32;

HALSTAD          N/A     37  28  72 NE3         N/A
FOSSTON        CLOUDY    28  23  80 NW10      29.68R WCI  19
BAUDETTE       CLOUDY    28  21  75 N13       29.62R WCI  17
6HR MIN TEMP:  27; 6HR MAX TEMP:  29; 6HR PCP: TRACE;

WASKISH        CLOUDY    28  21  74 N7G16     29.63R WCI  21
CROOKSTON      CLOUDY    36  27  69 NE6       29.71R
$$
  *****  WEATHER ACROSS CENTRAL AND WEST MINNESOTA  *****

CITY           SKY/WX    TMP DP  RH WIND       PRES   REMARKS
BEMIDJI        CLOUDY    29  21  72 NW10      29.63R WCI  20
PARK RAPIDS    CLOUDY    31  20  63 NW15      29.63S WCI  20
6HR MIN TEMP:  28; 6HR MAX TEMP:  32;

WADENA         CLOUDY    30  25  80 NW10      29.66R WCI  21
DETROIT LAKES  CLOUDY    32  28  86 N9        29.68R WCI  24
MOORHEAD       CLOUDY    37  28  70 N7        29.70S
FERGUS FALLS   CLOUDY    36  27  69 N12       29.70R
ELBOW LAKE     CLOUDY    35  26  70 NW10      29.71R
6HR MIN TEMP:  29; 6HR MAX TEMP:  35;

MORRIS MN      CLOUDY    36  27  69 N10       29.71R
STAPLES        CLOUDY    30  25  80 NW9       29.66R WCI  22
WHEATON        CLOUDY    37  27  65 NW7       29.74R
$$
  *****  WEATHER ELSEWHERE ACROSS MINNESOTA  *****

CITY           SKY/WX    TMP DP  RH WIND       PRES   REMARKS
DULUTH         CLOUDY    29  21  72 NW12      29.57R WCI  19
6HR MIN TEMP:  26; 6HR MAX TEMP:  30;

INTRNTL FALLS  CLOUDY    28  18  66 N10       29.58R WCI  19
6HR MIN TEMP:  26; 6HR MAX TEMP:  29; 6HR PCP: TRACE;

ELY            CLOUDY    27  18  69 W8        29.53R WCI  18
CLOQUET        CLOUDY    28  19  69 W6        29.59R WCI  22
BRAINERD       CLOUDY    30  23  75 NW9       29.64R WCI  22
6HR MIN TEMP:  27; 6HR MAX TEMP:  30;

HIBBING        CLOUDY    26  18  71 W10       29.57R WCI  16
6HR MIN TEMP:  26; 6HR MAX TEMP:  27;

ALEXANDRIA     CLOUDY    32  24  72 NW15      29.69R WCI  22
6HR MIN TEMP:  29; 6HR MAX TEMP:  33;

SAINT CLOUD    CLOUDY    32  24  72 NW14      29.67R WCI  22
6HR MIN TEMP:  30; 6HR MAX TEMP:  32;

MINNEAPOLIS    CLOUDY    34  24  67 NW13      29.69R WCI  25
6HR MIN TEMP:  34; 6HR MAX TEMP:  36;

$$

  *****  WEATHER ACROSS SOUTH DAKOTA  *****

CITY           SKY/WX    TMP DP  RH WIND       PRES   REMARKS
SIOUX FALLS    FAIR      50  32  50 N12       29.70R
6HR MIN TEMP:  40; 6HR MAX TEMP:  52;

BROOKINGS      FAIR      43  28  55 N14       29.71R
WATERTOWN      PTSUNNY   41  29  62 N15       29.71R
6HR MIN TEMP:  33; 6HR MAX TEMP:  42;

HURON          FAIR      49  29  46 NE10      29.71R
6HR MIN TEMP:  40; 6HR MAX TEMP:  50;

SISSETON         N/A     41  30  65 NE8       29.71R
ABERDEEN       FAIR      50  27  40 N15       29.71R
6HR MIN TEMP:  37; 6HR MAX TEMP:  50;

MITCHELL       FAIR      51  31  46 NE6       29.71R
PIERRE         FAIR      50  30  46 E7        29.69R
6HR MIN TEMP:  40; 6HR MAX TEMP:  52;

MOBRIDGE       FAIR      55  24  30 N12       29.67R
RAPID CITY     CLOUDY    45  32  60 E9        29.65R
6HR MIN TEMP:  44; 6HR MAX TEMP:  48;

$$

  *****  SOME WEATHER IN NEARBY STATES *****

CITY           SKY/WX    TMP DP  RH WIND       PRES   REMARKS
GLASGOW MT     PTSUNNY   53  20  27 E12       29.71R
6HR MIN TEMP:  49; 6HR MAX TEMP:  56;

GREAT FALLS MT CLOUDY    42  35  76 N12       29.78R
6HR MIN TEMP:  39; 6HR MAX TEMP:  45; 6HR PCP:  0.01;

CHEYENNE WY    FAIR      48  23  37 NW14G22   29.55R
6HR MIN TEMP:  33; 6HR MAX TEMP:  48; 6HR PCP:  0.12;

SCOTTSBLUFF NE PTSUNNY   44  41  89 SE15      29.55S
6HR MIN TEMP:  43; 6HR MAX TEMP:  50; 6HR PCP:  0.19;

OMAHA NE       PTSUNNY   58  33  39 NW5       29.71R
6HR MIN TEMP:  48; 6HR MAX TEMP:  59;

DES MOINES IA  PTSUNNY   56  35  45 NW7       29.73R
6HR MIN TEMP:  45; 6HR MAX TEMP:  58;

DAVENPORT IA   MOCLDY    46  37  71 W8        29.75R
6HR MIN TEMP:  41; 6HR MAX TEMP:  46;

CHICAGO IL     CLOUDY    46  36  68 SW16G25   29.74R
6HR MIN TEMP:  45; 6HR MAX TEMP:  46;

EAU CLAIRE WI  CLOUDY    34  26  72 W9        29.65R
6HR MIN TEMP:  33; 6HR MAX TEMP:  34;

LA CROSSE WI   CLOUDY    40  30  67 W13       29.69R
6HR MIN TEMP:  40; 6HR MAX TEMP:  43; 6HR PCP:  0.01;

$$

  *****  SOME NATIONAL WEATHER *****

CITY           SKY/WX    TMP DP  RH WIND       PRES   REMARKS
LA GUARDIA NY  CLOUDY    63  58  83 SE12      29.88S FOG


USA.gov is the U.S. government's official web portal to all federal, state and local government web resources and services.